Cherokee, IA

3:49 AM CDT on August 30, 2016 (GMT -0500)
Cherokee Municipal

Weather History for KCKP - November, 2013

Change the Weather History Date:

Saturday, November 9, 2013

  Actual Average Record
Temperature  
Mean Temperature 44 °F -  
Max Temperature 53 °F 46 °F 71 °F (1980)
Min Temperature 35 °F 26 °F 4 °F (1991)
Degree Days  
Heating Degree Days 21    
Moisture  
Dew Point 33 °F    
Average Humidity 62    
Maximum Humidity 74    
Minimum Humidity 48    
Precipitation  
Precipitation 0.00 in - - ()
Sea Level Pressure  
Sea Level Pressure 30.07 in    
Wind  
Wind Speed 11 mph (WNW)    
Max Wind Speed 21 mph    
Max Gust Speed 28 mph    
Visibility 10 miles    
Events      
Averages and records for this station are not official NWS values.
T = Trace of Precipitation, MM = Missing Value Source: NWS Daily Summary

Daily Weather History Graph

Daily Weather History Graph

Search for Another Location

Airport or City:

Trip Planner

Search our weather history database for the weather conditions in past years. The results will help you decide how hot, cold, wet, or windy it might be!

Date:

Astronomy

Nov. 09, 2013 Rise Set
Actual Time 7:06 AM CST 5:04 PM CST
Civil Twilight 6:36 AM CST 5:34 PM CST
Nautical Twilight 6:02 AM CST 6:08 PM CST
Astronomical Twilight 5:29 AM CST 6:41 PM CST
Moon 12:42 PM CST (11/9) 11:38 PM CST (11/9)
Length of Visible Light 10h 58m
Length of Day
9h 58m
Waxing Crescent, 44% of the Moon is Illuminated
Nov 9
Waxing Crescent
Nov 9
First Quarter
Nov 17
Full
Nov 25
Last Quarter
Dec 2
New

Hourly Weather History & Observations

Time (CST) Temp. Windchill Dew Point Humidity Pressure Visibility Wind Dir Wind Speed Gust Speed Precip Events Conditions
12:15 AM 47.8 °F - 34.2 °F 59% 29.82 in 10.0 mi West 12.7 mph 17.3 mph N/A   Clear
12:35 AM 48.2 °F - 33.8 °F 58% 29.82 in 10.0 mi West 12.7 mph 16.1 mph N/A   Clear
12:55 AM 47.7 °F - 33.8 °F 59% 29.83 in 10.0 mi West 10.4 mph - N/A   Clear
1:15 AM 46.6 °F - 34.0 °F 62% 29.83 in 10.0 mi West 10.4 mph - N/A   Clear
1:35 AM 45.7 °F 40.6 °F 33.8 °F 63% 29.84 in 10.0 mi WSW 10.4 mph - N/A   Clear
1:55 AM 44.2 °F 39.2 °F 33.8 °F 67% 29.84 in 10.0 mi West 9.2 mph - N/A   Clear
2:15 AM 43.9 °F 39.9 °F 33.6 °F 67% 29.85 in 10.0 mi WSW 6.9 mph - N/A   Clear
2:35 AM 43.5 °F 39.4 °F 33.1 °F 67% 29.84 in 10.0 mi SW 6.9 mph - N/A   Clear
2:55 AM 42.1 °F 36.6 °F 34.3 °F 74% 29.85 in 10.0 mi SSW 9.2 mph - N/A   Clear
3:15 AM 42.8 °F 37.5 °F 34.0 °F 71% 29.86 in 10.0 mi SW 9.2 mph - N/A   Clear
3:35 AM 41.5 °F 37.8 °F 33.6 °F 73% 29.86 in 10.0 mi SW 5.8 mph - N/A   Clear
3:55 AM 45.7 °F 40.6 °F 32.4 °F 60% 29.87 in 10.0 mi West 10.4 mph 18.4 mph N/A   Clear
4:15 AM 44.6 °F 38.8 °F 32.2 °F 62% 29.89 in 10.0 mi WSW 11.5 mph - N/A   Clear
4:35 AM 43.7 °F 38.6 °F 32.2 °F 64% 29.89 in 10.0 mi WSW 9.2 mph - N/A   Clear
4:55 AM 41.5 °F 37.1 °F 32.9 °F 71% 29.90 in 10.0 mi WSW 6.9 mph - N/A   Clear
5:15 AM 40.6 °F 35.4 °F 32.9 °F 74% 29.92 in 10.0 mi WSW 8.1 mph - N/A   Clear
5:35 AM 41.0 °F 35.2 °F 32.9 °F 73% 29.92 in 10.0 mi West 9.2 mph - N/A   Clear
5:55 AM 41.7 °F 36.7 °F 32.9 °F 71% 29.93 in 10.0 mi West 8.1 mph - N/A   Clear
6:15 AM 42.1 °F 37.1 °F 32.9 °F 70% 29.95 in 10.0 mi West 8.1 mph - N/A   Clear
6:35 AM 41.7 °F 36.7 °F 32.9 °F 71% 29.96 in 10.0 mi West 8.1 mph - N/A   Clear
6:55 AM 41.5 °F 35.0 °F 32.9 °F 71% 29.97 in 10.0 mi WNW 11.5 mph 17.3 mph N/A   Clear
7:15 AM 41.2 °F 35.0 °F 33.1 °F 73% 29.98 in 10.0 mi WNW 10.4 mph - N/A   Clear
7:35 AM 42.4 °F 36.1 °F 33.8 °F 71% 29.99 in 10.0 mi WNW 11.5 mph 18.4 mph N/A   Clear
7:55 AM 42.4 °F 35.7 °F 34.2 °F 72% 30.00 in 10.0 mi WNW 12.7 mph 16.1 mph N/A   Clear
8:15 AM 43.3 °F 36.5 °F 34.7 °F 72% 30.01 in 10.0 mi WNW 13.8 mph 18.4 mph N/A   Clear
8:35 AM 44.4 °F 38.6 °F 35.6 °F 71% 30.03 in 10.0 mi WNW 11.5 mph 16.1 mph N/A   Clear
8:55 AM 45.9 °F 39.4 °F 35.6 °F 67% 30.04 in 10.0 mi WNW 15.0 mph 20.7 mph N/A   Clear
9:15 AM 46.8 °F - 36.3 °F 67% 30.05 in 10.0 mi WNW 12.7 mph 20.7 mph N/A   Clear
9:35 AM 47.3 °F - 35.8 °F 64% 30.06 in 10.0 mi WNW 16.1 mph 21.9 mph N/A   Clear
9:55 AM 48.2 °F - 36.1 °F 63% 30.07 in 10.0 mi WNW 16.1 mph 20.7 mph N/A   Clear
10:15 AM 49.1 °F - 36.0 °F 61% 30.08 in 10.0 mi WNW 18.4 mph 23.0 mph N/A   Clear
10:35 AM 49.5 °F - 36.3 °F 61% 30.08 in 10.0 mi NW 11.5 mph 24.2 mph N/A   Scattered Clouds
10:55 AM 50.9 °F - 35.6 °F 56% 30.09 in 10.0 mi NW 17.3 mph 20.7 mph N/A   Clear
11:15 AM 51.1 °F - 35.6 °F 55% 30.09 in 10.0 mi WNW 16.1 mph 23.0 mph N/A   Clear
11:35 AM 51.8 °F - 34.5 °F 52% 30.09 in 10.0 mi WNW 15.0 mph 25.3 mph N/A   Clear
11:55 AM 52.3 °F - 34.0 °F 50% 30.10 in 10.0 mi WNW 16.1 mph 27.6 mph N/A   Clear
12:15 PM 52.7 °F - 35.2 °F 52% 30.10 in 10.0 mi NW 12.7 mph 24.2 mph N/A   Clear
12:35 PM 52.7 °F - 34.3 °F 50% 30.10 in 10.0 mi WNW 19.6 mph 24.2 mph N/A   Clear
12:55 PM 52.7 °F - 34.7 °F 50% 30.10 in 10.0 mi WNW 20.7 mph 26.5 mph N/A   Clear
1:15 PM 53.1 °F - 34.7 °F 50% 30.10 in 10.0 mi WNW 16.1 mph 27.6 mph N/A   Clear
1:35 PM 53.4 °F - 34.2 °F 48% 30.10 in 10.0 mi WNW 18.4 mph 24.2 mph N/A   Clear
1:55 PM 52.7 °F - 34.2 °F 49% 30.11 in 10.0 mi WNW 15.0 mph 25.3 mph N/A   Clear
2:15 PM 52.0 °F - 34.5 °F 51% 30.12 in 10.0 mi WNW 15.0 mph 24.2 mph N/A   Clear
2:35 PM 52.7 °F - 34.7 °F 50% 30.12 in 10.0 mi WNW 16.1 mph 23.0 mph N/A   Clear
2:55 PM 52.7 °F - 34.0 °F 49% 30.13 in 10.0 mi WNW 16.1 mph 23.0 mph N/A   Clear
3:15 PM 51.8 °F - 33.3 °F 49% 30.13 in 10.0 mi WNW 15.0 mph 23.0 mph N/A   Clear
3:35 PM 51.4 °F - 32.4 °F 48% 30.14 in 10.0 mi NW 12.7 mph 24.2 mph N/A   Clear
3:55 PM 50.9 °F - 32.7 °F 50% 30.15 in 10.0 mi WNW 11.5 mph 20.7 mph N/A   Clear
4:15 PM 50.0 °F - 31.8 °F 50% 30.16 in 10.0 mi NW 12.7 mph 19.6 mph N/A   Clear
4:35 PM 49.1 °F - 32.2 °F 52% 30.16 in 10.0 mi WNW 6.9 mph - N/A   Clear
4:55 PM 48.2 °F - 32.4 °F 54% 30.17 in 10.0 mi WNW 8.1 mph - N/A   Clear
5:15 PM 46.8 °F - 32.9 °F 59% 30.18 in 10.0 mi WNW 5.8 mph - N/A   Clear
5:35 PM 45.0 °F 41.2 °F 32.9 °F 63% 30.19 in 10.0 mi WNW 6.9 mph - N/A   Clear
5:55 PM 45.1 °F 40.8 °F 32.5 °F 61% 30.19 in 10.0 mi NW 8.1 mph - N/A   Clear
6:15 PM 44.6 °F 40.2 °F 32.0 °F 61% 30.20 in 10.0 mi WNW 8.1 mph - N/A   Clear
6:35 PM 45.0 °F 39.3 °F 31.1 °F 58% 30.21 in 10.0 mi WNW 11.5 mph 17.3 mph N/A   Clear
6:55 PM 45.0 °F 38.9 °F 30.0 °F 56% 30.22 in 10.0 mi NW 12.7 mph 20.7 mph N/A   Clear
7:15 PM 44.1 °F 38.6 °F 29.5 °F 57% 30.23 in 10.0 mi NNW 10.4 mph 17.3 mph N/A   Clear
7:35 PM 42.8 °F 37.5 °F 29.7 °F 60% 30.24 in 10.0 mi NNW 9.2 mph 18.4 mph N/A   Clear
8:35 PM 39.2 °F 32.5 °F 29.3 °F 68% 30.26 in 10.0 mi North 10.4 mph - N/A   Clear
8:55 PM 38.7 °F 31.8 °F 28.6 °F 67% 30.27 in 10.0 mi North 10.4 mph - N/A   Clear
9:15 PM 39.6 °F 34.0 °F 27.5 °F 62% 30.28 in 10.0 mi NNW 8.1 mph - N/A   Clear
9:35 PM 39.4 °F 33.2 °F 27.3 °F 62% 30.29 in 10.0 mi NNW 9.2 mph - N/A   Clear
9:55 PM 38.1 °F 31.2 °F 27.3 °F 65% 30.30 in 10.0 mi North 10.4 mph - N/A   Clear
10:15 PM 37.2 °F 30.0 °F 27.3 °F 67% 30.31 in 10.0 mi NNW 10.4 mph - N/A   Clear
10:35 PM 36.0 °F 29.0 °F 27.5 °F 71% 30.31 in 10.0 mi North 9.2 mph - N/A   Clear
10:55 PM 35.6 °F 28.6 °F 27.5 °F 72% 30.32 in 10.0 mi NNW 9.2 mph - N/A   Clear
11:15 PM 35.8 °F 28.3 °F 27.5 °F 72% 30.32 in 10.0 mi NNW 10.4 mph - N/A   Clear
11:35 PM 35.6 °F 28.0 °F 27.1 °F 71% 30.33 in 10.0 mi North 10.4 mph 16.1 mph N/A   Clear
11:55 PM 35.6 °F 28.6 °F 26.4 °F 69% 30.33 in 10.0 mi NNW 9.2 mph - N/A   Clear